Flag for United Kingdom Weather past 2 weeks in Oxford, England, United Kingdom

Now
57 °F

Broken clouds.


Feels Like: 56 °F
Forecast: 50 / 64 °F
Wind: 7 mph from North

Location: Benson

Current Time: Aug 31, 2015 at 6:47:57 PM

Latest Report: Aug 31, 2015 at 5:50 PM


Visibility: 3 mi

Pressure: 29.98 "Hg

Humidity: 94%

Dew point: 55 °F

Location of OxfordLocation

Historic Weather in Oxford — Graph

°F

Oxford temperature yesterday

Maximum temperature yesterday: 64 °F (at 10:50 AM)
Minimum temperature yesterday: 57 °F (at 5:50 AM)
Average temperature yesterday: 61 °F

Past Weeks' High & Low Weather Summary

 TemperatureHumidityPressure
High84 °F (Aug 22, 2:50 PM)100% (Aug 19, 8:50 PM)30.12 "Hg (Aug 19, 8:50 PM)
Low48 °F (Aug 28, 1:50 AM)40% (Aug 17, 12:50 PM)29.45 "Hg (Aug 24, 11:50 AM)
Average61 °F81%29.89 "Hg
* Reported Aug 16 3:50 PM — Aug 31 3:50 PM, Oxford, Weather by CustomWeather, © 2015

Note: Actual official high and low records may vary slightly from our data, if they occured in-between our weather recording intervals... More about our weather records

Advertising

Oxford weather history for previous 24 hours

 ConditionsComfort  
Time TempWeatherWind HumidityBarometerVisibility
3:50 PM
Mon, Aug 31
57 °FCloudy.10 mph94%29.95 "HgN/A
2:50 PM57 °FDrizzle. More clouds than sun.9 mph94%29.95 "Hg4 mi
1:50 PM59 °FLight rain. Mostly cloudy.8 mph94%29.92 "HgN/A
12:50 PM59 °FRain. Mostly cloudy.7 mph94%29.92 "HgN/A
11:50 AM59 °FPartly sunny.10 mph88%29.92 "HgN/A
10:50 AM57 °FBroken clouds.10 mph94%29.89 "HgN/A
9:50 AM57 °FLow clouds.10 mph94%29.92 "HgN/A
8:50 AM57 °FLow clouds.10 mph94%29.89 "HgN/A
7:50 AM57 °FPartly sunny.14 mph100%29.89 "Hg2 mi
6:50 AM57 °FPassing clouds.7 mph100%29.92 "Hg3 mi
5:50 AM57 °FLow clouds.9 mph94%29.92 "Hg3 mi
4:50 AM57 °FLow clouds.7 mph94%29.95 "Hg3 mi
3:50 AM57 °FLow clouds.6 mph94%29.95 "Hg6 mi
2:50 AM57 °FPartly cloudy.8 mph100%29.95 "Hg4 mi
1:50 AM57 °FPassing clouds.8 mph100%29.95 "Hg6 mi
12:50 AM59 °FPassing clouds.7 mph94%29.98 "Hg5 mi
11:50 PM
Sun, Aug 30
59 °FLow clouds.6 mph100%30.01 "Hg4 mi
10:50 PM61 °FLow clouds.6 mph88%30.04 "Hg6 mi
9:50 PM61 °FLow clouds.8 mph94%30.01 "Hg5 mi
8:50 PM61 °FPartly sunny.9 mph94%30.01 "Hg4 mi
7:50 PM61 °FPartly sunny.8 mph94%30.04 "HgN/A
6:50 PM61 °FPartly sunny.7 mph94%30.04 "HgN/A
Weather by CustomWeather, © 2015

See weather overviewHow to use our weather pages